Regional Weather Roundup
Issued by NWS

Home | Current Version | Previous Version | Graphics & Text | Print | Product List | Glossary On
Versions: 1 2 3 4 5 6 7 8 9 10 11 12 13 14 15 16 17 18 19 20 21 22 23 24 25 26 27 28 29 30 31 32 33 34 35 36 37 38 39 40 41 42 43 44 45 46 47 48 49 50
000
ASUS45 KCYS 280110
RWRWY

WYOMING REGIONAL WEATHER ROUNDUP
NATIONAL WEATHER SERVICE CHEYENNE WY
600 PM MST TUE JAN 27 2015

NOTE:  "FAIR" INDICATES FEW OR NO CLOUDS BELOW 12,000 FEET
WITH NO SIGNIFICANT WEATHER AND/OR OBSTRUCTIONS TO VISIBILITY.

WYZ001-280200-
YELLOWSTONE NATIONAL PARK

CITY           SKY/WX    TMP DP  RH WIND       PRES   REMARKS
LK YELLOWSTONE   N/A     36  25  64 W8        30.17S WCI  30
W YELLOWSTONE  NOT AVBL

$$
WYZ002>013-054>058-071-098>099-280200-
NORTHERN WYOMING

CITY           SKY/WX    TMP DP  RH WIND       PRES   REMARKS
JACKSON        CLOUDY    25  23  93 CALM      30.16S
CODY           FAIR      55  25  30 W15       29.95R
GREYBULL       FAIR      33  27  78 E7        29.96S WCI  27
WORLAND        FAIR      29  24  82 CALM      29.95S
SHERIDAN       FAIR      40  30  67 NW3       29.87F
BUFFALO          N/A     49  32  52 NW7       29.90F
GILLETTE       FAIR      44  29  55 CALM      29.88S
HULETT           N/A    N/A N/A N/A MISG        N/A
NEWCASTLE      FAIR      50  27  40 CALM      29.94R

$$
WYZ014>020-022>026-101>103-280200-
CENTRAL WYOMING

CITY           SKY/WX    TMP DP  RH WIND       PRES   REMARKS
BIG PINEY      FAIR      32  25  75 NE6       30.16S WCI  26
PINEDALE       CLOUDY    32  28  86 W5        30.16F WCI  27
DUBOIS         MOCLDY    41  25  52 W23G29    30.09R
LANDER         FAIR      38  29  70 NW8       30.02R WCI  32
RIVERTON       MOCLDY    36  30  79 NW5       30.03S WCI  32
CASPER         FAIR      46  28  49 SW13      30.02R
DOUGLAS        FAIR      53  22  29 NW8G33    29.99R

$$
WYZ021-027>030-104>119-280200-
SOUTHERN WYOMING

CITY           SKY/WX    TMP DP  RH WIND       PRES   REMARKS
EVANSTON       MOCLDY    39  31  72 SW10      30.18S WCI  32
KEMMERER       CLOUDY    36  30  80 W8        30.18S WCI  29
FORT BRIDGER   CLOUDY    42  32  69 W13       30.20R
ROCK SPRINGS   FAIR      39  25  57 SW8       30.16R WCI  33
DIXON          MOCLDY    41  28  60 S7        30.22S
RAWLINS        MOCLDY    44  26  49 SW17      30.14S
SARATOGA       CLOUDY    41  27  56 SW8       30.18S
LARAMIE        FAIR      46  20  35 SW12      30.13S
CHEYENNE       FAIR      50  19  29 W9        30.07R
TORRINGTON     FAIR      56  26  31 W12       29.96S
PINE BLUFFS    FAIR      50  23  34 CALM      30.03R

$$


USA.gov is the U.S. government's official web portal to all federal, state and local government web resources and services.